Powrót do katalogu

ONEWEB-0207

AktywnyŁącznośćPO
NORAD 48242·PAYLOAD·🇬🇧 United Kingdom

Wystrzelony Apr 25, 2021 z Vostochny Cosmodrome

Loading…

Następne Przeloty (najbliższe 24 godziny)

TLE

ŚwieżeSource: CelesTrak SupGP

Epoka: Sep 15, 2026, 03:57 UTC

1 48242C 21031AJ  26258.16508516 -.00004630  00000+0 -12505-1 0  2588
2 48242  87.8900 271.7585 0002029 102.4502 337.3448 13.14505989    14

Śledź ONEWEB-0207 w czasie rzeczywistym z AllMySat

Download on the App Store